| time (UTC) | temp F | wind direction | speed MPH | gust MPH | rain 1hr in | rain 24hr in | rain mn in | humidity % | barometer mb |
| 20260506072651 | 56 | 354 | 2.0 | 3.0 | 0.00 | 0.00 | 0.00 | 82 | 1018.9 |
| 20260506072149 | 56 | 327 | 3.0 | 3.0 | 0.00 | 0.00 | 0.00 | 82 | 1019.1 |
| 20260506071646 | 56 | 258 | 3.0 | 4.0 | 0.00 | 0.00 | 0.00 | 81 | 1018.9 |
| 20260506071143 | 56 | 265 | 0.0 | 4.0 | 0.00 | 0.00 | 0.00 | 81 | 1018.9 |
| 20260506070640 | 56 | 350 | 2.0 | 5.0 | 0.00 | 0.00 | 0.00 | 81 | 1018.7 |
| 20260506070137 | 56 | 196 | 2.0 | 4.0 | 0.00 | 0.00 | 0.00 | 81 | 1018.9 |
| 20260506062114 | 56 | 129 | 1.0 | 2.0 | 0.00 | 0.09 | 0.09 | 82 | 1018.4 |
| 20260506061610 | 56 | 135 | 1.0 | 2.0 | 0.00 | 0.09 | 0.09 | 82 | 1018.5 |
| 20260506061108 | 56 | 347 | 0.0 | 2.0 | 0.00 | 0.09 | 0.09 | 82 | 1018.4 |
| 20260506060607 | 56 | 170 | 4.0 | 4.0 | 0.00 | 0.09 | 0.09 | 81 | 1018.5 |
| 20260506051035 | 56 | 64 | 0.0 | 2.0 | 0.00 | 0.09 | 0.09 | 82 | 1018.2 |
| 20260506050532 | 57 | 235 | 2.0 | 3.0 | 0.00 | 0.09 | 0.09 | 83 | 1018.2 |
| 20260506045023 | 57 | 216 | 3.0 | 6.0 | 0.00 | 0.09 | 0.09 | 84 | 1018.2 |
| 20260506044521 | 57 | 230 | 4.0 | 8.0 | 0.00 | 0.09 | 0.09 | 84 | 1018.0 |
| 20260506044017 | 56 | 218 | 2.0 | 4.0 | 0.00 | 0.09 | 0.09 | 84 | 1018.1 |
| 20260506043515 | 56 | 130 | 0.0 | 2.0 | 0.00 | 0.09 | 0.09 | 83 | 1018.1 |
| 20260506043014 | 56 | 152 | 2.0 | 3.0 | 0.00 | 0.09 | 0.09 | 83 | 1018.0 |
| 20260506042512 | 56 | 180 | 2.0 | 3.0 | 0.00 | 0.09 | 0.09 | 82 | 1017.8 |
| 20260506042009 | 56 | 258 | 3.0 | 3.0 | 0.00 | 0.09 | 0.09 | 82 | 1017.7 |
| 20260506041509 | 57 | 122 | 2.0 | 5.0 | 0.00 | 0.09 | 0.09 | 81 | 1017.6 |
| 20260506041005 | 56 | 290 | 2.0 | 5.0 | 0.00 | 0.09 | 0.09 | 81 | 1017.8 |
| 20260506040503 | 56 | 213 | 1.0 | 4.0 | 0.00 | 0.09 | 0.09 | 82 | 1017.6 |
| 20260506035958 | 57 | 204 | 2.0 | 5.0 | 0.00 | 0.09 | 0.09 | 82 | 1017.5 |
| 20260506035455 | 57 | 230 | 2.0 | 3.0 | 0.00 | 0.09 | 0.09 | 82 | 1017.4 |
| 20260506034952 | 57 | 203 | 2.0 | 8.0 | 0.00 | 0.09 | 0.09 | 82 | 1017.4 |
| 20260506034449 | 57 | 220 | 6.0 | 10.0 | 0.00 | 0.09 | 0.09 | 82 | 1017.1 |
| 20260506033946 | 57 | 249 | 2.0 | 11.0 | 0.00 | 0.09 | 0.09 | 81 | 1017.0 |
| 20260506033444 | 57 | 205 | 2.0 | 7.0 | 0.00 | 0.09 | 0.09 | 81 | 1017.0 |
| 20260506032940 | 57 | 218 | 2.0 | 6.0 | 0.00 | 0.09 | 0.09 | 81 | 1017.0 |
| 20260506032438 | 57 | 263 | 5.0 | 9.0 | 0.00 | 0.09 | 0.09 | 81 | 1016.9 |
| 20260506031934 | 57 | 294 | 0.0 | 5.0 | 0.00 | 0.09 | 0.09 | 80 | 1016.8 |
| 20260506031431 | 57 | 292 | 4.0 | 9.0 | 0.00 | 0.09 | 0.09 | 81 | 1016.8 |
| 20260506030929 | 57 | 251 | 4.0 | 4.0 | 0.00 | 0.09 | 0.09 | 81 | 1016.8 |
| 20260506030427 | 57 | 323 | 4.0 | 5.0 | 0.00 | 0.09 | 0.09 | 80 | 1017.0 |
| 20260506025923 | 57 | 184 | 4.0 | 10.0 | 0.00 | 0.09 | 0.09 | 80 | 1016.7 |
| 20260506025421 | 57 | 236 | 9.0 | 10.0 | 0.00 | 0.09 | 0.09 | 81 | 1016.5 |
| 20260506024917 | 57 | 205 | 2.0 | 9.0 | 0.00 | 0.09 | 0.09 | 81 | 1016.7 |
| 20260506024414 | 57 | 219 | 5.0 | 11.0 | 0.00 | 0.09 | 0.09 | 82 | 1016.9 |
| 20260506023910 | 57 | 218 | 2.0 | 9.0 | 0.00 | 0.09 | 0.09 | 81 | 1016.5 |
| 20260506023407 | 57 | 146 | 5.0 | 8.0 | 0.00 | 0.09 | 0.09 | 80 | 1016.6 |
| 20260506022903 | 57 | 225 | 6.0 | 9.0 | 0.00 | 0.09 | 0.09 | 80 | 1016.5 |
| 20260506022401 | 57 | 213 | 8.0 | 13.0 | 0.00 | 0.09 | 0.09 | 80 | 1016.5 |
| 20260506021859 | 57 | 225 | 3.0 | 13.0 | 0.00 | 0.09 | 0.09 | 81 | 1016.6 |
| 20260506021356 | 57 | 235 | 8.0 | 15.0 | 0.00 | 0.09 | 0.09 | 81 | 1016.5 |
| 20260506020853 | 58 | 171 | 2.0 | 11.0 | 0.00 | 0.09 | 0.09 | 81 | 1016.4 |
| 20260506020351 | 58 | 204 | 5.0 | 13.0 | 0.00 | 0.09 | 0.09 | 80 | 1016.3 |
| 20260506015848 | 58 | 205 | 7.0 | 13.0 | 0.00 | 0.09 | 0.09 | 80 | 1016.2 |
| 20260506015345 | 58 | 268 | 7.0 | 16.0 | 0.00 | 0.09 | 0.09 | 79 | 1016.2 |
| 20260506014842 | 59 | 199 | 8.0 | 14.0 | 0.00 | 0.09 | 0.09 | 77 | 1016.2 |
| 20260506014339 | 59 | 234 | 5.0 | 12.0 | 0.00 | 0.09 | 0.09 | 75 | 1016.4 |
| 20260506013835 | 61 | 257 | 7.0 | 10.0 | 0.00 | 0.09 | 0.09 | 73 | 1015.9 |
| 20260506013333 | 60 | 283 | 4.0 | 8.0 | 0.00 | 0.09 | 0.09 | 74 | 1016.3 |
| 20260506012829 | 60 | 277 | 4.0 | 13.0 | 0.00 | 0.09 | 0.09 | 74 | 1016.4 |
| 20260506012326 | 61 | 257 | 7.0 | 9.0 | 0.00 | 0.09 | 0.09 | 71 | 1016.2 |
| 20260506011824 | 61 | 248 | 4.0 | 7.0 | 0.00 | 0.09 | 0.09 | 73 | 1016.2 |
| 20260506011320 | 60 | 227 | 2.0 | 11.0 | 0.00 | 0.09 | 0.09 | 75 | 1016.3 |
| 20260506010818 | 61 | 259 | 10.0 | 11.0 | 0.00 | 0.09 | 0.09 | 72 | 1016.4 |
| 20260506010315 | 61 | 214 | 5.0 | 7.0 | 0.00 | 0.09 | 0.09 | 72 | 1016.2 |
| 20260506005812 | 60 | 235 | 13.0 | 16.0 | 0.00 | 0.09 | 0.09 | 72 | 1016.2 |
| 20260506005309 | 62 | 222 | 10.0 | 12.0 | 0.00 | 0.09 | 0.09 | 70 | 1016.1 |
| 20260506004805 | 62 | 325 | 2.0 | 10.0 | 0.00 | 0.09 | 0.09 | 70 | 1016.0 |
| 20260506004303 | 61 | 184 | 3.0 | 11.0 | 0.00 | 0.09 | 0.09 | 71 | 1016.2 |
| 20260506003759 | 61 | 251 | 9.0 | 12.0 | 0.00 | 0.09 | 0.09 | 70 | 1016.1 |
| 20260506003256 | 60 | 309 | 5.0 | 14.0 | 0.00 | 0.09 | 0.09 | 72 | 1016.0 |
| 20260506002751 | 60 | 230 | 3.0 | 8.0 | 0.00 | 0.09 | 0.09 | 74 | 1016.1 |
| 20260506002248 | 60 | 237 | 6.0 | 9.0 | 0.00 | 0.09 | 0.09 | 72 | 1016.0 |
| 20260506001744 | 60 | 191 | 4.0 | 9.0 | 0.00 | 0.09 | 0.09 | 72 | 1015.8 |
| 20260506001241 | 60 | 230 | 8.0 | 14.0 | 0.00 | 0.09 | 0.09 | 72 | 1015.8 |
| 20260506000738 | 61 | 202 | 11.0 | 15.0 | 0.00 | 0.09 | 0.09 | 70 | 1015.8 |
| 20260506000236 | 60 | 227 | 8.0 | 11.0 | 0.00 | 0.09 | 0.09 | 71 | 1015.9 |
| 20260505235732 | 60 | 175 | 3.0 | 15.0 | 0.00 | 0.09 | 0.09 | 72 | 1015.8 |
| 20260505235230 | 60 | 257 | 4.0 | 12.0 | 0.00 | 0.09 | 0.09 | 71 | 1015.9 |
| 20260505234727 | 61 | 235 | 2.0 | 13.0 | 0.00 | 0.09 | 0.09 | 70 | 1015.8 |
| 20260505234224 | 61 | 311 | 2.0 | 16.0 | 0.00 | 0.09 | 0.09 | 70 | 1015.9 |
| 20260505233721 | 61 | 247 | 5.0 | 11.0 | 0.00 | 0.09 | 0.09 | 71 | 1016.0 |
| 20260505233219 | 61 | 200 | 5.0 | 7.0 | 0.00 | 0.09 | 0.09 | 71 | 1015.9 |
| 20260505232716 | 61 | 254 | 2.0 | 8.0 | 0.00 | 0.09 | 0.09 | 70 | 1015.8 |
| 20260505232213 | 61 | 29 | 2.0 | 11.0 | 0.00 | 0.09 | 0.09 | 70 | 1015.9 |
| 20260505231710 | 61 | 198 | 6.0 | 13.0 | 0.00 | 0.09 | 0.09 | 69 | 1016.0 |
| 20260505231209 | 62 | 239 | 10.0 | 18.0 | 0.00 | 0.09 | 0.09 | 68 | 1015.9 |
| 20260505230706 | 62 | 264 | 9.0 | 13.0 | 0.00 | 0.09 | 0.09 | 69 | 1015.6 |
| 20260505230203 | 61 | 223 | 6.0 | 17.0 | 0.00 | 0.09 | 0.09 | 70 | 1015.8 |
| 20260505225659 | 61 | 228 | 6.0 | 15.0 | 0.00 | 0.09 | 0.09 | 70 | 1015.6 |
| 20260505225156 | 61 | 203 | 6.0 | 18.0 | 0.00 | 0.09 | 0.09 | 70 | 1015.8 |
| 20260505224651 | 62 | 233 | 6.0 | 7.0 | 0.00 | 0.09 | 0.09 | 69 | 1015.9 |
| 20260505224150 | 62 | 315 | 4.0 | 9.0 | 0.00 | 0.09 | 0.09 | 70 | 1015.8 |
| 20260505223647 | 62 | 279 | 4.0 | 10.0 | 0.00 | 0.09 | 0.09 | 68 | 1016.0 |
| 20260505223142 | 61 | 295 | 4.0 | 12.0 | 0.00 | 0.09 | 0.09 | 70 | 1016.0 |
| 20260505222638 | 62 | 261 | 9.0 | 11.0 | 0.00 | 0.09 | 0.09 | 68 | 1016.2 |
| 20260505222135 | 62 | 238 | 8.0 | 13.0 | 0.00 | 0.09 | 0.09 | 68 | 1016.0 |
| 20260505221631 | 62 | 299 | 12.0 | 15.0 | 0.00 | 0.09 | 0.09 | 68 | 1016.0 |
| 20260505221128 | 62 | 319 | 4.0 | 13.0 | 0.00 | 0.09 | 0.09 | 68 | 1016.0 |
| 20260505220626 | 62 | 229 | 10.0 | 12.0 | 0.00 | 0.09 | 0.09 | 68 | 1016.0 |
| 20260505220123 | 63 | 318 | 4.0 | 8.0 | 0.00 | 0.09 | 0.09 | 68 | 1016.1 |
| 20260505215621 | 62 | 259 | 5.0 | 13.0 | 0.00 | 0.09 | 0.09 | 68 | 1016.1 |
| 20260505215119 | 62 | 212 | 11.0 | 16.0 | 0.00 | 0.09 | 0.09 | 69 | 1016.2 |
| 20260505214617 | 62 | 229 | 6.0 | 10.0 | 0.00 | 0.09 | 0.09 | 69 | 1016.2 |
| 20260505214114 | 62 | 239 | 6.0 | 15.0 | 0.00 | 0.09 | 0.09 | 68 | 1016.4 |
| 20260505213612 | 62 | 281 | 2.0 | 11.0 | 0.00 | 0.09 | 0.09 | 69 | 1016.3 |
| 20260505213108 | 62 | 252 | 10.0 | 13.0 | 0.00 | 0.09 | 0.09 | 68 | 1016.3 |
| 20260505212604 | 61 | 232 | 7.0 | 13.0 | 0.00 | 0.09 | 0.09 | 70 | 1016.2 |
| 20260505212102 | 62 | 224 | 5.0 | 14.0 | 0.00 | 0.09 | 0.09 | 68 | 1016.2 |
| 20260505211558 | 62 | 278 | 2.0 | 11.0 | 0.00 | 0.09 | 0.09 | 67 | 1016.4 |
| 20260505211055 | 62 | 302 | 6.0 | 9.0 | 0.00 | 0.09 | 0.09 | 67 | 1016.4 |
| 20260505210551 | 62 | 257 | 7.0 | 11.0 | 0.00 | 0.09 | 0.09 | 67 | 1016.5 |
| 20260505210049 | 62 | 278 | 6.0 | 10.0 | 0.00 | 0.09 | 0.09 | 66 | 1016.2 |
| 20260505205546 | 62 | 273 | 8.0 | 15.0 | 0.00 | 0.09 | 0.09 | 67 | 1016.4 |
| 20260505205044 | 63 | 268 | 6.0 | 13.0 | 0.00 | 0.09 | 0.09 | 67 | 1016.4 |
| 20260505204541 | 62 | 261 | 9.0 | 15.0 | 0.00 | 0.09 | 0.09 | 66 | 1016.6 |
| 20260505204038 | 62 | 308 | 7.0 | 11.0 | 0.00 | 0.09 | 0.09 | 67 | 1016.4 |
| 20260505203529 | 61 | 229 | 8.0 | 12.0 | 0.00 | 0.09 | 0.09 | 68 | 1016.2 |
| 20260505203027 | 61 | 272 | 4.0 | 12.0 | 0.00 | 0.09 | 0.09 | 67 | 1016.5 |
| 20260505202523 | 62 | 311 | 10.0 | 11.0 | 0.00 | 0.09 | 0.09 | 65 | 1016.5 |
| 20260505202019 | 61 | 316 | 5.0 | 11.0 | 0.00 | 0.09 | 0.09 | 67 | 1016.5 |
| 20260505201516 | 62 | 215 | 4.0 | 12.0 | 0.00 | 0.09 | 0.09 | 67 | 1016.4 |
| 20260505201013 | 62 | 276 | 9.0 | 13.0 | 0.00 | 0.09 | 0.09 | 66 | 1016.4 |
| 20260505200511 | 62 | 230 | 9.0 | 13.0 | 0.00 | 0.09 | 0.09 | 67 | 1016.4 |
| 20260505200008 | 61 | 255 | 8.0 | 14.0 | 0.00 | 0.09 | 0.09 | 68 | 1016.4 |
| 20260505195503 | 61 | 296 | 1.0 | 13.0 | 0.00 | 0.09 | 0.09 | 69 | 1016.2 |
| 20260505195000 | 62 | 291 | 9.0 | 10.0 | 0.00 | 0.09 | 0.09 | 68 | 1016.3 |
| 20260505194458 | 62 | 238 | 7.0 | 10.0 | 0.00 | 0.09 | 0.09 | 68 | 1016.5 |
| 20260505193958 | 62 | 354 | 4.0 | 11.0 | 0.00 | 0.09 | 0.09 | 67 | 1016.7 |
| 20260505193456 | 61 | 242 | 2.0 | 9.0 | 0.00 | 0.09 | 0.09 | 68 | 1016.6 |
| 20260505192953 | 61 | 263 | 11.0 | 15.0 | 0.00 | 0.09 | 0.09 | 68 | 1016.5 |
| 20260505192451 | 60 | 319 | 4.0 | 14.0 | 0.00 | 0.09 | 0.09 | 72 | 1016.6 |
| 20260505191948 | 61 | 258 | 4.0 | 9.0 | 0.00 | 0.09 | 0.09 | 69 | 1016.5 |
| 20260505191447 | 61 | 285 | 5.0 | 13.0 | 0.00 | 0.09 | 0.09 | 70 | 1016.6 |
| 20260505190943 | 61 | 290 | 8.0 | 10.0 | 0.00 | 0.09 | 0.09 | 71 | 1016.5 |
| 20260505190438 | 60 | 256 | 3.0 | 12.0 | 0.00 | 0.09 | 0.09 | 72 | 1016.4 |
| 20260505185934 | 60 | 258 | 13.0 | 13.0 | 0.00 | 0.09 | 0.09 | 72 | 1016.3 |
| 20260505185432 | 60 | 342 | 4.0 | 14.0 | 0.00 | 0.09 | 0.09 | 72 | 1016.4 |
| 20260505184928 | 60 | 350 | 7.0 | 8.0 | 0.00 | 0.09 | 0.09 | 74 | 1016.4 |
| 20260505184425 | 60 | 234 | 4.0 | 7.0 | 0.00 | 0.09 | 0.09 | 73 | 1016.4 |
| 20260505183922 | 60 | 198 | 4.0 | 8.0 | 0.00 | 0.09 | 0.09 | 75 | 1016.4 |
| 20260505183419 | 61 | 296 | 7.0 | 9.0 | 0.00 | 0.09 | 0.09 | 74 | 1016.5 |
| 20260505182915 | 60 | 345 | 3.0 | 11.0 | 0.00 | 0.09 | 0.09 | 75 | 1016.5 |
| 20260505182412 | 60 | 333 | 2.0 | 10.0 | 0.00 | 0.09 | 0.09 | 76 | 1016.6 |
| 20260505181908 | 60 | 348 | 3.0 | 8.0 | 0.00 | 0.09 | 0.09 | 76 | 1016.4 |
| 20260505181406 | 60 | 45 | 0.0 | 3.0 | 0.00 | 0.09 | 0.09 | 77 | 1016.3 |
| 20260505180902 | 59 | 277 | 3.0 | 6.0 | 0.00 | 0.09 | 0.09 | 78 | 1016.3 |
| 20260505180354 | 59 | 132 | 0.0 | 4.0 | 0.00 | 0.09 | 0.09 | 79 | 1016.1 |
| 20260505175850 | 59 | 296 | 2.0 | 5.0 | 0.00 | 0.09 | 0.09 | 80 | 1016.3 |
| 20260505175347 | 58 | 103 | 0.0 | 3.0 | 0.00 | 0.09 | 0.09 | 81 | 1016.3 |
| 20260505174843 | 58 | 208 | 2.0 | 10.0 | 0.00 | 0.09 | 0.09 | 80 | 1016.2 |
| 20260505174341 | 58 | 224 | 0.0 | 7.0 | 0.00 | 0.09 | 0.09 | 81 | 1016.1 |
| 20260505173837 | 57 | 131 | 2.0 | 9.0 | 0.00 | 0.09 | 0.09 | 81 | 1015.9 |
| 20260505173333 | 57 | 284 | 2.0 | 6.0 | 0.00 | 0.09 | 0.09 | 81 | 1016.0 |
| 20260505172830 | 57 | 299 | 0.0 | 5.0 | 0.00 | 0.09 | 0.09 | 82 | 1016.1 |
| 20260505172328 | 57 | 9 | 2.0 | 4.0 | 0.00 | 0.09 | 0.09 | 83 | 1016.1 |
| 20260505171827 | 57 | 302 | 2.0 | 5.0 | 0.00 | 0.09 | 0.09 | 83 | 1016.0 |
| 20260505171324 | 57 | 356 | 8.0 | 9.0 | 0.00 | 0.09 | 0.09 | 83 | 1016.2 |
| 20260505170821 | 57 | 56 | 3.0 | 6.0 | 0.00 | 0.09 | 0.09 | 84 | 1015.8 |
| 20260505170318 | 57 | 69 | 1.0 | 5.0 | 0.00 | 0.09 | 0.09 | 85 | 1016.1 |
| 20260505165813 | 57 | 265 | 6.0 | 7.0 | 0.00 | 0.09 | 0.09 | 85 | 1016.0 |
| 20260505165309 | 56 | 276 | 4.0 | 6.0 | 0.00 | 0.09 | 0.09 | 85 | 1015.9 |
| 20260505164804 | 56 | 269 | 5.0 | 8.0 | 0.00 | 0.09 | 0.09 | 86 | 1016.2 |
| 20260505164302 | 56 | 257 | 2.0 | 7.0 | 0.00 | 0.09 | 0.09 | 86 | 1015.9 |
| 20260505163800 | 56 | 246 | 5.0 | 10.0 | 0.00 | 0.09 | 0.09 | 87 | 1016.0 |
| 20260505163258 | 56 | 221 | 4.0 | 8.0 | 0.00 | 0.09 | 0.09 | 87 | 1016.1 |
| 20260505162756 | 56 | 236 | 2.0 | 4.0 | 0.00 | 0.09 | 0.09 | 88 | 1016.0 |
| 20260505162252 | 56 | 42 | 0.0 | 4.0 | 0.00 | 0.09 | 0.09 | 88 | 1015.8 |
| 20260505161749 | 56 | 287 | 2.0 | 4.0 | 0.00 | 0.09 | 0.09 | 87 | 1016.0 |
| 20260505161247 | 55 | 181 | 2.0 | 3.0 | 0.00 | 0.09 | 0.09 | 88 | 1016.0 |
| 20260505160744 | 55 | 230 | 0.0 | 3.0 | 0.00 | 0.09 | 0.09 | 88 | 1015.8 |
| 20260505160242 | 55 | 337 | 4.0 | 4.0 | 0.00 | 0.09 | 0.09 | 88 | 1015.8 |
| 20260505153221 | 54 | 183 | 4.0 | 6.0 | 0.00 | 0.09 | 0.09 | 89 | 1015.7 |
| 20260505152718 | 55 | 293 | 6.0 | 6.0 | 0.00 | 0.09 | 0.09 | 89 | 1015.5 |
| 20260505152214 | 55 | 329 | 2.0 | 6.0 | 0.00 | 0.09 | 0.09 | 88 | 1015.6 |
| 20260505151709 | 55 | 212 | 4.0 | 4.0 | 0.00 | 0.09 | 0.09 | 88 | 1015.5 |
| 20260505151207 | 55 | 135 | 0.0 | 3.0 | 0.00 | 0.09 | 0.09 | 88 | 1015.3 |
| 20260505150702 | 55 | 205 | 3.0 | 8.0 | 0.00 | 0.09 | 0.09 | 88 | 1015.2 |
| 20260505150200 | 55 | 240 | 6.0 | 8.0 | 0.00 | 0.09 | 0.09 | 87 | 1015.3 |
| 20260505140633 | 54 | 169 | 2.0 | 3.0 | 0.00 | 0.09 | 0.09 | 88 | 1015.0 |
| 20260505140130 | 54 | 212 | 2.0 | 8.0 | 0.00 | 0.09 | 0.09 | 87 | 1015.2 |
| 20260505124544 | 54 | 163 | 3.0 | 5.0 | 0.00 | 0.09 | 0.09 | 84 | 1014.8 |
| 20260505124040 | 54 | 164 | 9.0 | 10.0 | 0.00 | 0.09 | 0.09 | 84 | 1014.7 |
| 20260505123537 | 54 | 134 | 4.0 | 7.0 | 0.00 | 0.09 | 0.09 | 84 | 1014.9 |
| 20260505123033 | 54 | 196 | 2.0 | 11.0 | 0.00 | 0.09 | 0.09 | 84 | 1014.8 |
| 20260505122530 | 54 | 219 | 8.0 | 10.0 | 0.00 | 0.09 | 0.09 | 84 | 1014.6 |
| 20260505122027 | 54 | 234 | 13.0 | 14.0 | 0.00 | 0.09 | 0.09 | 84 | 1014.7 |
| 20260505121523 | 54 | 221 | 5.0 | 10.0 | 0.00 | 0.09 | 0.09 | 83 | 1014.7 |
| 20260505121020 | 54 | 217 | 6.0 | 10.0 | 0.00 | 0.09 | 0.09 | 83 | 1014.5 |
| 20260505120516 | 54 | 190 | 2.0 | 6.0 | 0.00 | 0.09 | 0.09 | 83 | 1014.6 |
| 20260505120012 | 54 | 163 | 3.0 | 4.0 | 0.00 | 0.09 | 0.09 | 83 | 1014.6 |
| 20260505115507 | 54 | 159 | 5.0 | 5.0 | 0.00 | 0.09 | 0.09 | 82 | 1014.5 |
| 20260505115005 | 53 | 139 | 3.0 | 3.0 | 0.00 | 0.09 | 0.09 | 82 | 1014.6 |
| 20260505114502 | 53 | 240 | 4.0 | 4.0 | 0.00 | 0.09 | 0.09 | 82 | 1014.7 |
| 20260505113958 | 54 | 175 | 3.0 | 6.0 | 0.00 | 0.09 | 0.09 | 81 | 1014.7 |
| 20260505113455 | 54 | 202 | 2.0 | 5.0 | 0.00 | 0.09 | 0.09 | 81 | 1015.1 |
| 20260505112950 | 54 | 231 | 4.0 | 11.0 | 0.00 | 0.09 | 0.09 | 80 | 1014.9 |
| 20260505112448 | 54 | 228 | 4.0 | 9.0 | 0.00 | 0.09 | 0.09 | 79 | 1014.8 |
| 20260505111944 | 54 | 188 | 4.0 | 10.0 | 0.00 | 0.09 | 0.09 | 78 | 1015.0 |
| 20260505111438 | 54 | 194 | 3.0 | 9.0 | 0.00 | 0.09 | 0.09 | 77 | 1015.0 |
| 20260505110935 | 53 | 220 | 4.0 | 12.0 | 0.00 | 0.09 | 0.09 | 78 | 1014.7 |
| 20260505110432 | 53 | 224 | 9.0 | 10.0 | 0.00 | 0.09 | 0.09 | 80 | 1014.8 |
| 20260505101902 | 53 | 207 | 5.0 | 9.0 | 0.00 | 0.09 | 0.09 | 82 | 1014.8 |
| 20260505101358 | 53 | 232 | 7.0 | 11.0 | 0.00 | 0.09 | 0.09 | 85 | 1015.0 |
| 20260505100854 | 53 | 195 | 2.0 | 4.0 | 0.00 | 0.09 | 0.09 | 87 | 1015.0 |
| 20260505100350 | 53 | 211 | 2.0 | 4.0 | 0.00 | 0.09 | 0.09 | 88 | 1015.1 |
| 20260505095846 | 53 | 279 | 4.0 | 6.0 | 0.00 | 0.09 | 0.09 | 88 | 1015.0 |
| 20260505095344 | 53 | 204 | 4.0 | 5.0 | 0.00 | 0.09 | 0.09 | 88 | 1014.9 |
| 20260505094840 | 54 | 199 | 3.0 | 4.0 | 0.00 | 0.09 | 0.09 | 89 | 1015.3 |
| 20260505094337 | 54 | 218 | 2.0 | 5.0 | 0.02 | 0.09 | 0.09 | 88 | 1015.1 |
| 20260505093832 | 54 | 164 | 2.0 | 3.0 | 0.00 | 0.08 | 0.08 | 88 | 1015.3 |
| 20260505093330 | 54 | 212 | 3.0 | 4.0 | 0.00 | 0.08 | 0.08 | 87 | 1015.1 |
| 20260505092827 | 54 | 200 | 4.0 | 6.0 | 0.00 | 0.08 | 0.08 | 87 | 1015.3 |
| 20260505092325 | 54 | 223 | 3.0 | 7.0 | 0.00 | 0.08 | 0.08 | 87 | 1015.3 |
| 20260505091822 | 53 | 215 | 4.0 | 7.0 | 0.00 | 0.08 | 0.08 | 87 | 1015.5 |
| 20260505091320 | 53 | 199 | 5.0 | 7.0 | 0.02 | 0.08 | 0.08 | 87 | 1015.5 |
| 20260505090818 | 53 | 222 | 4.0 | 8.0 | 0.02 | 0.08 | 0.08 | 87 | 1015.7 |
| 20260505090316 | 53 | 201 | 3.0 | 10.0 | 0.00 | 0.08 | 0.08 | 88 | 1015.7 |
| 20260505085813 | 53 | 213 | 3.0 | 9.0 | 0.00 | 0.08 | 0.08 | 88 | 1015.4 |
| 20260505085310 | 53 | 231 | 2.0 | 7.0 | 0.00 | 0.08 | 0.08 | 88 | 1015.7 |
| 20260505084808 | 53 | 252 | 3.0 | 10.0 | 0.02 | 0.08 | 0.08 | 88 | 1015.7 |
| 20260505084307 | 53 | 240 | 3.0 | 8.0 | 0.05 | 0.08 | 0.08 | 88 | 1015.5 |
| 20260505083803 | 53 | 258 | 4.0 | 5.0 | 0.09 | 0.07 | 0.07 | 88 | 1015.5 |
| 20260505083300 | 53 | 206 | 4.0 | 5.0 | 0.09 | 0.07 | 0.07 | 88 | 1015.6 |
| 20260505082756 | 53 | 247 | 5.0 | 5.0 | 0.05 | 0.06 | 0.06 | 87 | 1015.5 |
| 20260505082254 | 53 | 221 | 3.0 | 4.0 | 0.00 | 0.05 | 0.05 | 87 | 1015.6 |
| 20260505081749 | 53 | 208 | 4.0 | 6.0 | 0.02 | 0.05 | 0.05 | 87 | 1015.5 |
| 20260505081247 | 53 | 219 | 4.0 | 9.0 | 0.05 | 0.05 | 0.05 | 87 | 1015.4 |
| 20260505080743 | 53 | 145 | 0.0 | 5.0 | 0.09 | 0.05 | 0.05 | 86 | 1015.6 |
| 20260505080238 | 53 | 239 | 2.0 | 10.0 | 0.09 | 0.04 | 0.04 | 86 | 1015.9 |
| 20260505075734 | 53 | 256 | 3.0 | 6.0 | 0.07 | 0.03 | 0.03 | 86 | 1015.7 |
| 20260505075226 | 53 | 210 | 2.0 | 7.0 | 0.05 | 0.02 | 0.02 | 85 | 1015.9 |
| 20260505074724 | 53 | 222 | 3.0 | 10.0 | 0.05 | 0.02 | 0.02 | 86 | 1015.6 |
| 20260505074220 | 53 | 210 | 3.0 | 9.0 | 0.02 | 0.02 | 0.02 | 86 | 1015.8 |
| 20260505073718 | 53 | 180 | 4.0 | 8.0 | 0.02 | 0.01 | 0.01 | 87 | 1015.9 |
| 20260505073216 | 53 | 203 | 2.0 | 10.0 | 0.02 | 0.01 | 0.01 | 87 | 1015.9 |